Time,TemperatureF,DewpointF,PressureIn,WindDirection,WindDirectionDegrees,WindSpeedMPH,WindSpeedGustMPH,Humidity,HourlyPrecipIn,Conditions,Clouds,dailyrainin,SoftwareType,DateUTC
2013-03-10 00:09:00,23.6,22.0,30.02,WNW,300,1.0,-999.0,94,-99.99,,,0.06,weatherlink.com 1.10,2013-03-10 07:09:00,
2013-03-10 00:24:00,23.5,22.0,30.02,NW,307,0.0,-999.0,94,-99.99,,,0.06,weatherlink.com 1.10,2013-03-10 07:24:00,
2013-03-10 00:39:00,23.4,22.0,30.04,NNW,336,0.0,-999.0,94,-99.99,,,0.06,weatherlink.com 1.10,2013-03-10 07:39:00,
2013-03-10 00:54:00,23.0,22.0,30.04,NNW,336,0.0,-999.0,94,-99.99,,,0.06,weatherlink.com 1.10,2013-03-10 07:54:00,
2013-03-10 01:10:00,22.8,21.0,30.04,NNW,331,0.0,-999.0,94,-99.99,,,0.06,weatherlink.com 1.10,2013-03-10 08:10:00,
2013-03-10 01:25:00,22.7,21.0,30.04,NNW,330,2.0,-999.0,94,-99.99,,,0.00,weatherlink.com 1.10,2013-03-10 08:25:00,
2013-03-10 01:40:00,22.8,21.0,30.04,WNW,296,0.0,-999.0,94,-99.99,,,0.00,weatherlink.com 1.10,2013-03-10 08:40:00,
2013-03-10 01:55:00,22.8,21.0,30.04,NW,320,3.0,-999.0,94,-99.99,,,0.00,weatherlink.com 1.10,2013-03-10 08:55:00,
2013-03-10 03:10:00,22.6,21.0,30.04,NW,304,2.0,-999.0,94,-99.99,,,0.00,weatherlink.com 1.10,2013-03-10 09:10:00,
2013-03-10 03:25:00,22.0,21.0,30.05,WNW,283,0.0,-999.0,94,-99.99,,,0.00,weatherlink.com 1.10,2013-03-10 09:25:00,
2013-03-10 03:40:00,21.6,20.0,30.05,WNW,300,1.0,-999.0,93,-99.99,,,0.00,weatherlink.com 1.10,2013-03-10 09:40:00,
2013-03-10 03:55:00,21.6,20.0,30.05,WNW,292,0.0,-999.0,93,-99.99,,,0.00,weatherlink.com 1.10,2013-03-10 09:55:00,
2013-03-10 04:10:00,21.8,20.0,30.05,WNW,295,0.0,-999.0,93,-99.99,,,0.00,weatherlink.com 1.10,2013-03-10 10:10:00,
2013-03-10 04:25:00,21.9,20.0,30.06,NW,313,4.0,-999.0,93,-99.99,,,0.00,weatherlink.com 1.10,2013-03-10 10:25:00,
2013-03-10 04:40:00,21.8,20.0,30.07,West,261,1.0,-999.0,93,-99.99,,,0.00,weatherlink.com 1.10,2013-03-10 10:40:00,
2013-03-10 04:55:00,21.7,20.0,30.07,NW,317,1.0,-999.0,93,-99.99,,,0.00,weatherlink.com 1.10,2013-03-10 10:55:00,
2013-03-10 05:10:00,21.8,20.0,30.07,WNW,291,4.0,-999.0,93,-99.99,,,0.00,weatherlink.com 1.10,2013-03-10 11:10:00,
2013-03-10 05:25:00,21.7,20.0,30.07,WNW,284,0.0,-999.0,93,-99.99,,,0.00,weatherlink.com 1.10,2013-03-10 11:25:00,
2013-03-10 05:40:00,21.9,20.0,30.09,WNW,303,5.0,-999.0,93,-99.99,,,0.00,weatherlink.com 1.10,2013-03-10 11:40:00,
2013-03-10 05:55:00,21.6,20.0,30.07,NW,307,4.0,-999.0,93,-99.99,,,0.00,weatherlink.com 1.10,2013-03-10 11:55:00,
2013-03-10 06:10:00,21.2,20.0,30.09,WSW,242,1.0,-999.0,93,-99.99,,,0.00,weatherlink.com 1.10,2013-03-10 12:10:00,
2013-03-10 06:25:00,20.7,19.0,30.09,WSW,258,0.0,-999.0,93,-99.99,,,0.00,weatherlink.com 1.10,2013-03-10 12:25:00,
2013-03-10 06:40:00,19.7,18.0,30.10,WSW,257,0.0,-999.0,93,-99.99,,,0.00,weatherlink.com 1.10,2013-03-10 12:40:00,
2013-03-10 06:55:00,18.7,17.0,30.11,SE,144,2.0,-999.0,93,-99.99,,,0.00,weatherlink.com 1.10,2013-03-10 12:55:00,
2013-03-10 07:10:00,18.8,17.0,30.11,South,175,2.0,-999.0,92,-99.99,,,0.00,weatherlink.com 1.10,2013-03-10 13:10:00,
2013-03-10 07:25:00,18.4,17.0,30.11,South,172,0.0,-999.0,92,-99.99,,,0.00,weatherlink.com 1.10,2013-03-10 13:25:00,
2013-03-10 07:40:00,19.0,17.0,30.11,South,180,2.0,-999.0,92,-99.99,,,0.00,weatherlink.com 1.10,2013-03-10 13:40:00,
2013-03-10 07:55:00,19.7,18.0,30.11,South,186,0.0,-999.0,92,-99.99,,,0.00,weatherlink.com 1.10,2013-03-10 13:55:00,
2013-03-10 08:10:00,20.9,19.0,30.10,South,186,0.0,-999.0,93,-99.99,,,0.00,weatherlink.com 1.10,2013-03-10 14:10:00,
2013-03-10 08:25:00,22.2,21.0,30.10,South,176,1.0,-999.0,93,-99.99,,,0.00,weatherlink.com 1.10,2013-03-10 14:25:00,
2013-03-10 08:40:00,23.6,22.0,30.10,South,172,0.0,-999.0,93,-99.99,,,0.00,weatherlink.com 1.10,2013-03-10 14:40:00,
2013-03-10 08:55:00,25.2,24.0,30.09,South,177,0.0,-999.0,94,-99.99,,,0.00,weatherlink.com 1.10,2013-03-10 14:55:00,
2013-03-10 09:10:00,26.0,25.0,30.09,SE,126,0.0,-999.0,94,-99.99,,,0.00,weatherlink.com 1.10,2013-03-10 15:10:00,
2013-03-10 09:25:00,27.2,26.0,30.07,South,175,1.0,-999.0,94,-99.99,,,0.01,weatherlink.com 1.10,2013-03-10 15:25:00,
2013-03-10 09:40:00,27.1,26.0,30.09,South,179,3.0,-999.0,94,-99.99,,,0.01,weatherlink.com 1.10,2013-03-10 15:40:00,
2013-03-10 09:55:00,26.9,25.0,30.09,South,176,0.0,-999.0,94,-99.99,,,0.01,weatherlink.com 1.10,2013-03-10 15:55:00,
2013-03-10 10:11:00,27.6,26.0,30.09,South,185,5.0,-999.0,94,-99.99,,,0.02,weatherlink.com 1.10,2013-03-10 16:11:00,
2013-03-10 10:25:00,27.2,26.0,30.09,SE,144,5.0,-999.0,94,-99.99,,,0.02,weatherlink.com 1.10,2013-03-10 16:25:00,
2013-03-10 10:40:00,27.4,26.0,30.09,South,184,0.0,-999.0,94,-99.99,,,0.03,weatherlink.com 1.10,2013-03-10 16:40:00,
2013-03-10 10:55:00,28.4,27.0,30.09,South,171,0.0,-999.0,94,-99.99,,,0.03,weatherlink.com 1.10,2013-03-10 16:55:00,
2013-03-10 11:11:00,29.6,28.0,30.07,SSE,148,2.0,-999.0,95,-99.99,,,0.04,weatherlink.com 1.10,2013-03-10 17:11:00,
2013-03-10 11:26:00,30.3,29.0,30.07,SE,133,0.0,-999.0,95,-99.99,,,0.04,weatherlink.com 1.10,2013-03-10 17:26:00,
2013-03-10 11:41:00,31.5,30.0,30.07,East,88,0.0,-999.0,95,-99.99,,,0.05,weatherlink.com 1.10,2013-03-10 17:41:00,
2013-03-10 11:56:00,32.5,31.0,30.05,SSE,148,0.0,-999.0,95,-99.99,,,0.07,weatherlink.com 1.10,2013-03-10 17:56:00,
2013-03-10 12:11:00,33.1,32.0,30.04,NNW,340,0.0,-999.0,95,-99.99,,,0.09,weatherlink.com 1.10,2013-03-10 18:11:00,
2013-03-10 12:26:00,33.5,32.0,30.04,NNE,32,0.0,-999.0,95,-99.99,,,0.11,weatherlink.com 1.10,2013-03-10 18:26:00,
2013-03-10 12:41:00,33.7,33.0,30.02,NNW,339,2.0,-999.0,96,-99.99,,,0.13,weatherlink.com 1.10,2013-03-10 18:41:00,
2013-03-10 12:56:00,33.6,33.0,30.02,NE,36,1.0,-999.0,96,-99.99,,,0.14,weatherlink.com 1.10,2013-03-10 18:56:00,
2013-03-10 13:11:00,34.0,33.0,30.02,WNW,302,4.0,-999.0,96,-99.99,,,0.15,weatherlink.com 1.10,2013-03-10 19:11:00,
2013-03-10 13:26:00,33.9,33.0,30.02,WNW,294,4.0,-999.0,96,-99.99,,,0.15,weatherlink.com 1.10,2013-03-10 19:26:00,
2013-03-10 13:41:00,34.4,33.0,30.02,NE,36,2.0,-999.0,96,-99.99,,,0.16,weatherlink.com 1.10,2013-03-10 19:41:00,
2013-03-10 13:56:00,34.4,33.0,30.02,NW,319,4.0,-999.0,95,-99.99,,,0.16,weatherlink.com 1.10,2013-03-10 19:56:00,
2013-03-10 14:26:00,34.1,33.0,30.01,WNW,295,5.0,-999.0,96,-99.99,,,0.16,weatherlink.com 1.10,2013-03-10 20:26:00,
2013-03-10 14:41:00,33.5,33.0,30.01,NW,308,8.0,-999.0,96,-99.99,,,0.16,weatherlink.com 1.10,2013-03-10 20:41:00,
2013-03-10 14:56:00,33.4,32.0,30.01,WNW,292,3.0,-999.0,96,-99.99,,,0.16,weatherlink.com 1.10,2013-03-10 20:56:00,
2013-03-10 15:26:00,33.3,33.0,30.03,NW,306,3.0,-999.0,97,-99.99,,,0.16,weatherlink.com 1.10,2013-03-10 21:26:00,
2013-03-10 15:41:00,33.6,33.0,30.02,NW,321,0.0,-999.0,97,-99.99,,,0.16,weatherlink.com 1.10,2013-03-10 21:41:00,
2013-03-10 15:56:00,34.4,34.0,30.02,NNW,342,0.0,-999.0,97,-99.99,,,0.16,weatherlink.com 1.10,2013-03-10 21:56:00,
2013-03-10 16:11:00,34.4,34.0,30.02,NNW,332,6.0,-999.0,97,-99.99,,,0.16,weatherlink.com 1.10,2013-03-10 22:11:00,
2013-03-10 16:26:00,34.4,34.0,30.02,WNW,300,6.0,-999.0,97,-99.99,,,0.16,weatherlink.com 1.10,2013-03-10 22:26:00,
2013-03-10 16:41:00,-999.0,-99.9,30.07,WNW,302,0.0,-999.0,-999,-99.99,,,0.16,weatherlink.com 1.10,2013-03-10 22:41:00,
2013-03-10 17:11:00,-999.0,-99.9,30.07,NW,323,3.0,-999.0,-999,-99.99,,,0.16,weatherlink.com 1.10,2013-03-10 23:11:00,
2013-03-10 17:26:00,-999.0,-99.9,30.06,ENE,61,6.0,-999.0,-999,-99.99,,,0.16,weatherlink.com 1.10,2013-03-10 23:26:00,
2013-03-10 17:41:00,-999.0,-99.9,30.08,NW,306,3.0,-999.0,-999,-99.99,,,0.16,weatherlink.com 1.10,2013-03-10 23:41:00,
2013-03-10 17:56:00,-999.0,-99.9,30.08,WNW,298,2.0,-999.0,-999,-99.99,,,0.16,weatherlink.com 1.10,2013-03-10 23:56:00,
2013-03-10 18:11:00,-999.0,-99.9,30.07,WNW,292,4.0,-999.0,-999,-99.99,,,0.16,weatherlink.com 1.10,2013-03-11 00:11:00,
2013-03-10 18:26:00,-90.0,-99.9,30.87,West,265,0.0,-999.0,-999,-99.99,,,0.16,weatherlink.com 1.10,2013-03-11 00:26:00,
2013-03-10 18:42:00,-90.0,-99.9,30.89,West,260,1.0,-999.0,-999,-99.99,,,0.16,weatherlink.com 1.10,2013-03-11 00:42:00,
2013-03-10 19:27:00,-999.0,-99.9,30.10,West,278,0.0,-999.0,-999,-99.99,,,0.16,weatherlink.com 1.10,2013-03-11 01:27:00,
2013-03-10 19:42:00,-999.0,-99.9,30.06,West,264,0.0,-999.0,-999,-99.99,,,0.16,weatherlink.com 1.10,2013-03-11 01:42:00,
2013-03-10 19:57:00,-999.0,-99.9,30.07,West,265,0.0,-999.0,-999,-99.99,,,0.16,weatherlink.com 1.10,2013-03-11 01:57:00,
2013-03-10 20:12:00,-999.0,-99.9,30.07,WNW,298,4.0,-999.0,-999,-99.99,,,0.16,weatherlink.com 1.10,2013-03-11 02:12:00,
2013-03-10 20:27:00,-90.0,-90.0,30.07,NW,304,6.0,-999.0,97,-99.99,,,0.16,weatherlink.com 1.10,2013-03-11 02:27:00,
2013-03-10 20:42:00,35.3,33.0,29.97,WNW,298,0.0,-999.0,92,-99.99,,,0.16,weatherlink.com 1.10,2013-03-11 02:42:00,
2013-03-10 20:57:00,35.7,31.0,29.97,West,269,5.0,-999.0,84,-99.99,,,0.16,weatherlink.com 1.10,2013-03-11 02:57:00,
2013-03-10 21:12:00,36.1,30.0,29.96,WNW,283,0.0,-999.0,78,-99.99,,,0.16,weatherlink.com 1.10,2013-03-11 03:12:00,
2013-03-10 21:27:00,36.3,29.0,29.96,West,265,0.0,-999.0,74,-99.99,,,0.16,weatherlink.com 1.10,2013-03-11 03:27:00,
2013-03-10 21:42:00,36.6,28.0,29.96,WNW,284,0.0,-999.0,70,-99.99,,,0.16,weatherlink.com 1.10,2013-03-11 03:42:00,
2013-03-10 21:58:00,37.0,27.0,29.94,WNW,284,0.0,-999.0,66,-99.99,,,0.16,weatherlink.com 1.10,2013-03-11 03:58:00,
2013-03-10 22:13:00,36.5,25.0,29.95,NW,315,5.0,-999.0,64,-99.99,,,0.16,weatherlink.com 1.10,2013-03-11 04:13:00,
2013-03-10 22:28:00,36.7,25.0,29.95,WNW,300,0.0,-999.0,63,-99.99,,,0.16,weatherlink.com 1.10,2013-03-11 04:28:00,
2013-03-10 22:43:00,36.2,25.0,29.93,West,272,2.0,-999.0,63,-99.99,,,0.16,weatherlink.com 1.10,2013-03-11 04:43:00,
2013-03-10 22:58:00,37.8,24.0,29.93,WNW,302,4.0,-999.0,58,-99.99,,,0.16,weatherlink.com 1.10,2013-03-11 04:58:00,
2013-03-10 23:14:00,38.1,23.0,29.91,WNW,287,2.0,-999.0,56,-99.99,,,0.16,weatherlink.com 1.10,2013-03-11 05:14:00,
2013-03-10 23:28:00,38.7,24.0,29.91,WNW,284,0.0,-999.0,55,-99.99,,,0.16,weatherlink.com 1.10,2013-03-11 05:28:00,
2013-03-10 23:43:00,38.6,24.0,29.88,NW,317,0.0,-999.0,55,-99.99,,,0.16,weatherlink.com 1.10,2013-03-11 05:43:00,
2013-03-10 23:58:00,38.4,24.0,29.89,NW,309,0.0,-999.0,56,-99.99,,,0.16,weatherlink.com 1.10,2013-03-11 05:58:00,